This is the latest recevied weather packets stored in our database for station/object DO7ZT-13. If no packets are shown the sender has not sent any weather packets the latest 10 day(s).
| Time | Temp. | Humidity | Pressure | Rain* | Wind** | Luminosity | Snow |
|---|---|---|---|---|---|---|---|
| 1777989921 | 21.11° C | 59% | 1007.3 hPa | 0 mm | 0.89 m/s, 353° | - | - |
| 1777989608 | 21.11° C | 57% | 1007.4 hPa | 0 mm | 0.89 m/s, 335° | - | - |
| 1777989333 | 21.11° C | 58% | 1007.4 hPa | 0 mm | 0.89 m/s, 324° | - | - |
| 1777989021 | 21.11° C | 57% | 1007.4 hPa | 0 mm | 1.34 m/s, 24° | - | - |
| 1777988709 | 21.11° C | 57% | 1007.4 hPa | 0 mm | 1.34 m/s, 330° | - | - |
| 1777988421 | 22.22° C | 56% | 1007.4 hPa | 0 mm | 0.89 m/s, 330° | - | - |
| 1777988109 | 21.11° C | 56% | 1007.4 hPa | 0 mm | 0.89 m/s, 56° | - | - |
| 1777987821 | 21.11° C | 57% | 1007.4 hPa | 0 mm | 0.89 m/s, 321° | - | - |
| 1777987508 | 21.11° C | 57% | 1007.4 hPa | 0 mm | 0.45 m/s, 306° | - | - |
| 1777987220 | 22.22° C | 56% | 1007.4 hPa | 0 mm | 1.79 m/s, 348° | - | - |
| 1777986908 | 21.11° C | 55% | 1007.4 hPa | 0 mm | 2.24 m/s, 303° | - | - |
| 1777986620 | 21.11° C | 56% | 1007.4 hPa | 0 mm | 0.45 m/s, 276° | - | - |
| 1777986308 | 22.22° C | 55% | 1007.4 hPa | 0 mm | 1.79 m/s, 324° | - | - |
| 1777986021 | 22.22° C | 55% | 1007.6 hPa | 0 mm | 0.89 m/s, 306° | - | - |
| 1777985708 | 21.11° C | 56% | 1007.6 hPa | 0 mm | 1.79 m/s, 278° | - | - |
| 1777985420 | 21.11° C | 57% | 1007.6 hPa | 0 mm | 0.89 m/s, 318° | - | - |
| 1777985108 | 21.11° C | 55% | 1007.5 hPa | 0 mm | 1.34 m/s, 314° | - | - |
| 1777984821 | 21.11° C | 56% | 1007.5 hPa | 0 mm | 2.68 m/s, 318° | - | - |
| 1777984508 | 21.11° C | 56% | 1007.5 hPa | 0 mm | 0.45 m/s, 314° | - | - |
| 1777984220 | 21.11° C | 57% | 1007.6 hPa | 0 mm | 1.34 m/s, 315° | - | - |
| 1777983908 | 21.11° C | 56% | 1007.6 hPa | 0 mm | 0.89 m/s, 342° | - | - |
| 1777983621 | 21.11° C | 56% | 1007.6 hPa | 0 mm | 0.89 m/s, 264° | - | - |
| 1777983308 | 22.22° C | 53% | 1007.8 hPa | 0 mm | 2.24 m/s, 306° | - | - |
| 1777983021 | 22.22° C | 51% | 1007.8 hPa | 0 mm | 0.89 m/s, 282° | - | - |
| 1777982708 | 21.11° C | 53% | 1007.8 hPa | 0 mm | 0.45 m/s, 37° | - | - |
* Rain latest hour (hover to see other rain measurements)
** Current wind speed in m/s (hover to see current wind gust speed)